STARLINK-34992

Last updated on Tue Sep 16 2025 00:02:07 GMT+0000 (Coordinated Universal Time)

1 65412U 25192J 25258.58341435 -.01483141 00000+0 -15637-1 0 9998 2 65412 53.1598 338.1143 0001068 90.4448 141.1702 15.66415736 3629
UTC large
Height (km)
Speed (km/s)
/
Latitude / Longitude
Inclination (degrees)
Orbital Period (minutes)
Azimuth
Elevation
Range (km)
Doppler Factor

Next 0 passes for location: London (51.5072 / 0.1276)

Sorry there are no passes over London.